| time (UTC) | temp F | wind direction | speed knots | gust knots | rain 1hr in | rain 24hr in | rain mn in | humidity % | barometer mb |
| 20260504174537 | 68 | 325 | 2.6 | 7.0 | 0.00 | 0.00 | 0.00 | 34 | 1009.5 |
| 20260504173034 | 66 | 5 | 1.7 | 8.7 | 0.00 | 0.00 | 0.00 | 40 | 1009.6 |
| 20260504171535 | 68 | 252 | 2.6 | 7.8 | 0.00 | 0.00 | 0.00 | 37 | 1009.7 |
| 20260504081544 | 44 | 0 | 0.0 | 1.7 | 0.00 | 0.00 | 0.00 | 62 | 1011.6 |
| 20260504044536 | 43 | 0 | 0.0 | 0.0 | 0.00 | 0.00 | 0.00 | 58 | 1011.4 |
| 20260504043102 | 44 | 0 | 0.0 | 0.0 | 0.00 | 0.00 | 0.00 | 57 | 1011.3 |
| 20260504041538 | 44 | 0 | 0.0 | 0.0 | 0.00 | 0.00 | 0.00 | 55 | 1011.2 |
| 20260504040042 | 44 | 0 | 0.0 | 0.0 | 0.00 | 0.00 | 0.00 | 54 | 1011.2 |
| 20260504034546 | 44 | 0 | 0.0 | 0.0 | 0.00 | 0.00 | 0.00 | 55 | 1011.1 |
| 20260504033033 | 45 | 0 | 0.0 | 0.0 | 0.00 | 0.00 | 0.00 | 53 | 1011.1 |
| 20260504031544 | 45 | 0 | 0.0 | 0.0 | 0.00 | 0.00 | 0.00 | 53 | 1011.1 |
| 20260504030055 | 45 | 0 | 0.0 | 0.0 | 0.00 | 0.00 | 0.00 | 51 | 1010.9 |
| 20260504024539 | 44 | 0 | 0.0 | 0.0 | 0.00 | 0.00 | 0.00 | 56 | 1011.0 |
| 20260504023041 | 45 | 0 | 0.0 | 0.0 | 0.00 | 0.00 | 0.00 | 55 | 1011.0 |
| 20260504021545 | 45 | 0 | 0.0 | 0.0 | 0.00 | 0.00 | 0.00 | 50 | 1010.9 |
| 20260504020038 | 45 | 0 | 0.0 | 0.0 | 0.00 | 0.00 | 0.00 | 51 | 1010.9 |
| 20260504014536 | 45 | 0 | 0.0 | 0.0 | 0.00 | 0.00 | 0.00 | 50 | 1010.8 |
| 20260504013050 | 46 | 0 | 0.0 | 0.0 | 0.00 | 0.00 | 0.00 | 49 | 1010.7 |
| 20260504011538 | 47 | 0 | 0.0 | 0.0 | 0.00 | 0.00 | 0.00 | 50 | 1010.5 |
| 20260504010050 | 47 | 0 | 0.0 | 0.0 | 0.00 | 0.00 | 0.00 | 51 | 1010.3 |
| 20260504004543 | 48 | 0 | 0.0 | 0.0 | 0.00 | 0.00 | 0.00 | 50 | 1010.0 |
| 20260504003035 | 48 | 184 | 0.0 | 1.7 | 0.00 | 0.00 | 0.00 | 47 | 1009.8 |
| 20260504001538 | 49 | 0 | 0.0 | 0.0 | 0.00 | 0.00 | 0.00 | 45 | 1009.6 |
| 20260504000040 | 50 | 0 | 0.0 | 0.9 | 0.00 | 0.00 | 0.00 | 42 | 1009.4 |
| 20260503234542 | 51 | 0 | 0.0 | 0.9 | 0.00 | 0.00 | 0.00 | 41 | 1009.2 |
| 20260503233038 | 51 | 183 | 0.0 | 2.6 | 0.00 | 0.00 | 0.00 | 41 | 1009.1 |
| 20260503231533 | 52 | 277 | 0.9 | 2.6 | 0.00 | 0.00 | 0.00 | 38 | 1009.1 |
| 20260503230050 | 53 | 0 | 0.9 | 6.1 | 0.00 | 0.00 | 0.00 | 41 | 1009.1 |
| 20260503224536 | 53 | 346 | 1.7 | 7.8 | 0.00 | 0.00 | 0.00 | 38 | 1009.0 |
| 20260503223051 | 53 | 294 | 3.5 | 12.2 | 0.00 | 0.00 | 0.00 | 39 | 1009.0 |
| 20260503221546 | 53 | 311 | 1.7 | 7.0 | 0.00 | 0.00 | 0.00 | 38 | 1008.8 |
| 20260503220039 | 53 | 222 | 3.5 | 13.0 | 0.00 | 0.00 | 0.00 | 38 | 1008.8 |
| 20260503214550 | 53 | 314 | 3.5 | 15.6 | 0.00 | 0.00 | 0.00 | 38 | 1008.8 |
| 20260503213040 | 54 | 305 | 3.5 | 8.7 | 0.00 | 0.00 | 0.00 | 37 | 1008.7 |
| 20260503211541 | 53 | 352 | 3.5 | 12.2 | 0.00 | 0.00 | 0.00 | 38 | 1008.7 |
| 20260503210039 | 54 | 21 | 3.5 | 12.2 | 0.00 | 0.00 | 0.00 | 37 | 1008.7 |
| 20260503204543 | 53 | 327 | 3.5 | 11.3 | 0.00 | 0.00 | 0.00 | 40 | 1008.6 |
| 20260503203037 | 53 | 258 | 2.6 | 13.9 | 0.00 | 0.00 | 0.00 | 42 | 1008.7 |
| 20260503201541 | 54 | 259 | 2.6 | 10.4 | 0.00 | 0.00 | 0.00 | 40 | 1008.7 |
| 20260503200036 | 51 | 308 | 3.5 | 17.4 | 0.00 | 0.00 | 0.00 | 42 | 1008.6 |
| 20260503194546 | 53 | 308 | 2.6 | 9.6 | 0.00 | 0.00 | 0.00 | 41 | 1008.6 |
| 20260503193037 | 52 | 314 | 6.1 | 18.2 | 0.00 | 0.00 | 0.00 | 42 | 1008.7 |
| 20260503191538 | 52 | 292 | 3.5 | 10.4 | 0.00 | 0.00 | 0.00 | 45 | 1008.6 |
| 20260503190043 | 53 | 311 | 3.5 | 13.9 | 0.00 | 0.00 | 0.00 | 44 | 1008.6 |
| 20260503184536 | 54 | 297 | 3.5 | 13.0 | 0.00 | 0.00 | 0.00 | 40 | 1008.6 |
| 20260503183042 | 53 | 315 | 4.3 | 11.3 | 0.00 | 0.00 | 0.00 | 41 | 1008.4 |
| 20260503181557 | 53 | 322 | 6.1 | 14.8 | 0.00 | 0.00 | 0.00 | 41 | 1008.4 |
| 20260503180046 | 53 | 336 | 7.0 | 12.2 | 0.00 | 0.00 | 0.00 | 39 | 1008.5 |